DIFLX EGKK-EDDN

Flight info

Callsign DIFLX
Flight time 1h 14m
Altitude 45000
Route MIMFO Y312 DVR UL9 KONAN UL607 KOK DCT MATUG DCT MOVUM T109 HAREM T104 ELMOX DCT LETKU LETKU1V
Aircraft C750/M-SBDE3FGHRWXY/S

Departure

Time 2026-04-15 08:03
Airport London Gatwick Airport (EGKK)

Arrival

Time 2026-04-15 09:17
Airport Nuremberg Airport (EDDN)
Time Latitude Longitude Altitude Speed Heading
2026-04-15 07:52 51.14772 -0.17230 201 ft 0 kts 53°
2026-04-15 07:59 51.14775 -0.17224 201 ft 1 kts 53°
2026-04-15 07:59 51.14780 -0.17214 205 ft 3 kts 53°
2026-04-15 07:59 51.14803 -0.17165 201 ft 8 kts 50°
2026-04-15 08:00 51.14851 -0.17118 202 ft 10 kts 49°
2026-04-15 08:00 51.14878 -0.16973 201 ft 16 kts 77°
2026-04-15 08:00 51.14901 -0.16806 208 ft 15 kts 78°
2026-04-15 08:00 51.14924 -0.16639 201 ft 16 kts 78°
2026-04-15 08:01 51.14947 -0.16461 201 ft 17 kts 77°
2026-04-15 08:01 51.15023 -0.16391 201 ft 14 kts 346°
2026-04-15 08:01 51.15148 -0.16431 202 ft 22 kts 347°
2026-04-15 08:01 51.15290 -0.16490 207 ft 19 kts 320°
2026-04-15 08:02 51.15279 -0.16633 205 ft 11 kts 239°
2026-04-15 08:02 51.15190 -0.16642 205 ft 18 kts 165°
2026-04-15 08:02 51.15132 -0.16689 202 ft 0 kts 261°
2026-04-15 08:02 51.15132 -0.16690 202 ft 0 kts 261°
2026-04-15 08:03 51.15087 -0.17015 206 ft 89 kts 259°
2026-04-15 08:03 51.14886 -0.18466 227 ft 164 kts 255°
2026-04-15 08:03 51.14594 -0.20423 439 ft 197 kts 253°
2026-04-15 08:03 51.14227 -0.22678 931 ft 218 kts 253°
2026-04-15 08:04 51.13863 -0.25012 1491 ft 224 kts 256°
2026-04-15 08:04 51.13680 -0.27365 3002 ft 205 kts 261°
2026-04-15 08:04 51.13850 -0.29676 3904 ft 227 kts 285°
2026-04-15 08:04 51.14655 -0.32035 4117 ft 255 kts 298°
2026-04-15 08:05 51.15950 -0.34031 3937 ft 267 kts 327°
2026-04-15 08:05 51.17713 -0.34743 3928 ft 261 kts 358°
2026-04-15 08:05 51.19413 -0.33996 3936 ft 251 kts 28°
2026-04-15 08:05 51.20654 -0.32093 3970 ft 248 kts 60°
2026-04-15 08:06 51.21168 -0.29537 3987 ft 241 kts 89°
2026-04-15 08:06 51.20894 -0.26964 3994 ft 233 kts 116°
2026-04-15 08:06 51.20301 -0.24539 4026 ft 238 kts 114°
2026-04-15 08:06 51.20214 -0.21851 3983 ft 249 kts 84°
2026-04-15 08:07 51.20524 -0.19120 4013 ft 259 kts 83°
2026-04-15 08:07 51.20857 -0.16255 4011 ft 269 kts 82°
2026-04-15 08:07 51.21253 -0.13236 4188 ft 289 kts 81°
2026-04-15 08:07 51.21678 -0.10167 5381 ft 275 kts 81°
2026-04-15 08:08 51.22086 -0.07064 5482 ft 292 kts 82°
2026-04-15 08:08 51.22492 -0.03909 5358 ft 287 kts 82°
2026-04-15 08:08 51.22895 -0.00858 5220 ft 280 kts 81°
2026-04-15 08:08 51.23288 0.02162 4942 ft 276 kts 81°
2026-04-15 08:09 51.23668 0.05136 4846 ft 271 kts 81°
2026-04-15 08:09 51.24046 0.08069 4814 ft 269 kts 81°
2026-04-15 08:09 51.24396 0.11029 4793 ft 280 kts 87°
2026-04-15 08:09 51.24233 0.14200 5592 ft 280 kts 105°
2026-04-15 08:10 51.23872 0.17162 6989 ft 277 kts 105°
2026-04-15 08:10 51.23634 0.20278 8016 ft 287 kts 99°
2026-04-15 08:10 51.23502 0.23502 9163 ft 292 kts 99°
2026-04-15 08:10 51.23329 0.26782 10037 ft 302 kts 101°
2026-04-15 08:11 51.23094 0.30271 10363 ft 329 kts 101°
2026-04-15 08:11 51.22853 0.34004 10553 ft 357 kts 100°
2026-04-15 08:11 51.22625 0.38031 11147 ft 366 kts 99°
2026-04-15 08:11 51.22392 0.42093 11977 ft 370 kts 99°
2026-04-15 08:12 51.22131 0.46218 12730 ft 376 kts 99°
2026-04-15 08:12 51.21865 0.50399 13540 ft 380 kts 98°
2026-04-15 08:12 51.21607 0.54618 14228 ft 384 kts 98°
2026-04-15 08:12 51.21344 0.58896 14952 ft 388 kts 98°
2026-04-15 08:13 51.21073 0.63209 15693 ft 392 kts 99°
2026-04-15 08:13 51.20793 0.67503 16442 ft 397 kts 99°
2026-04-15 08:13 51.20507 0.71917 17220 ft 401 kts 99°
2026-04-15 08:13 51.20228 0.76373 18017 ft 406 kts 99°
2026-04-15 08:14 51.19944 0.80871 18740 ft 410 kts 99°
2026-04-15 08:14 51.19648 0.85415 19485 ft 414 kts 99°
2026-04-15 08:14 51.19346 0.90019 20243 ft 418 kts 99°
2026-04-15 08:14 51.19047 0.94615 21056 ft 423 kts 99°
2026-04-15 08:15 51.18739 0.99307 21768 ft 427 kts 98°
2026-04-15 08:15 51.18424 1.04040 22464 ft 431 kts 98°
2026-04-15 08:15 51.18105 1.08820 23162 ft 436 kts 99°
2026-04-15 08:15 51.17780 1.13658 23826 ft 440 kts 99°
2026-04-15 08:16 51.17451 1.18534 24392 ft 444 kts 99°
2026-04-15 08:16 51.17116 1.23454 24957 ft 448 kts 99°
2026-04-15 08:16 51.16781 1.28353 25503 ft 453 kts 99°
2026-04-15 08:16 51.16436 1.33352 26050 ft 457 kts 99°
2026-04-15 08:17 51.16136 1.38418 26553 ft 462 kts 97°
2026-04-15 08:17 51.15905 1.43547 27091 ft 465 kts 96°
2026-04-15 08:17 51.15658 1.48700 27652 ft 469 kts 97°
2026-04-15 08:17 51.15399 1.53904 28190 ft 474 kts 97°
2026-04-15 08:18 51.15142 1.59161 28726 ft 478 kts 97°
2026-04-15 08:18 51.14885 1.64480 29249 ft 482 kts 97°
2026-04-15 08:18 51.14620 1.69830 29767 ft 487 kts 97°
2026-04-15 08:18 51.14345 1.75250 30279 ft 491 kts 97°
2026-04-15 08:19 51.14073 1.80642 30699 ft 495 kts 97°
2026-04-15 08:19 51.13794 1.86143 31135 ft 498 kts 97°
2026-04-15 08:19 51.13511 1.91654 31759 ft 497 kts 96°
2026-04-15 08:19 51.13228 1.97077 32392 ft 496 kts 96°
2026-04-15 08:20 51.12939 2.02556 32990 ft 496 kts 96°
2026-04-15 08:20 51.12650 2.08027 33613 ft 496 kts 96°
2026-04-15 08:20 51.12357 2.13516 34235 ft 496 kts 97°
2026-04-15 08:20 51.12065 2.18914 34783 ft 495 kts 97°
2026-04-15 08:21 51.11767 2.24408 35363 ft 494 kts 97°
2026-04-15 08:21 51.11468 2.29877 35959 ft 493 kts 97°
2026-04-15 08:21 51.11171 2.35237 36547 ft 492 kts 97°
2026-04-15 08:21 51.10867 2.40678 37110 ft 492 kts 96°
2026-04-15 08:22 51.10561 2.46123 37668 ft 492 kts 96°
2026-04-15 08:22 51.10253 2.51565 38270 ft 491 kts 96°
2026-04-15 08:22 51.09943 2.56985 38850 ft 491 kts 96°
2026-04-15 08:22 51.09633 2.62357 39313 ft 490 kts 96°
2026-04-15 08:23 51.09107 2.67713 39750 ft 488 kts 104°
2026-04-15 08:23 51.08252 2.72932 40249 ft 487 kts 107°
2026-04-15 08:23 51.07315 2.78093 40747 ft 486 kts 107°
2026-04-15 08:23 51.06442 2.83278 41243 ft 485 kts 105°
2026-04-15 08:24 51.05629 2.88482 41704 ft 486 kts 104°
2026-04-15 08:24 51.04794 2.93614 42162 ft 486 kts 105°
2026-04-15 08:24 51.03899 2.98793 42656 ft 485 kts 106°
2026-04-15 08:24 51.03017 3.03961 43146 ft 485 kts 105°
2026-04-15 08:25 51.02163 3.09139 43625 ft 484 kts 105°
2026-04-15 08:25 51.01302 3.14324 44103 ft 484 kts 105°
2026-04-15 08:25 51.00416 3.19517 44587 ft 484 kts 106°
2026-04-15 08:25 50.99541 3.24620 45013 ft 484 kts 105°
2026-04-15 08:26 50.98663 3.29804 45157 ft 489 kts 105°
2026-04-15 08:26 50.96856 3.40412 45179 ft 506 kts 105°
2026-04-15 08:27 50.95294 3.49482 45181 ft 519 kts 105°
2026-04-15 08:27 50.93040 3.62545 45193 ft 533 kts 105°
2026-04-15 08:28 50.91395 3.71981 45189 ft 532 kts 105°
2026-04-15 08:28 50.89429 3.83228 45199 ft 526 kts 105°
2026-04-15 08:29 50.87464 3.94377 45197 ft 524 kts 105°
2026-04-15 08:29 50.85500 4.05463 45196 ft 526 kts 105°
2026-04-15 08:30 50.83513 4.16609 45201 ft 526 kts 105°
2026-04-15 08:30 50.81513 4.27758 45201 ft 526 kts 105°
2026-04-15 08:31 50.79499 4.38916 45193 ft 526 kts 105°
2026-04-15 08:31 50.77489 4.49980 45207 ft 527 kts 105°
2026-04-15 08:32 50.75454 4.61118 45208 ft 527 kts 105°
2026-04-15 08:32 50.73420 4.72181 45210 ft 526 kts 105°
2026-04-15 08:33 50.71363 4.83305 45208 ft 526 kts 105°
2026-04-15 08:33 50.69316 4.94308 45220 ft 526 kts 106°
2026-04-15 08:34 50.67243 5.05382 45231 ft 526 kts 106°
2026-04-15 08:34 50.65159 5.16453 45237 ft 525 kts 106°
2026-04-15 08:35 50.63072 5.27470 45240 ft 523 kts 106°
2026-04-15 08:35 50.60993 5.38385 45225 ft 524 kts 106°
2026-04-15 08:36 50.58880 5.49415 45233 ft 524 kts 106°
2026-04-15 08:36 50.56770 5.60359 45235 ft 523 kts 106°
2026-04-15 08:37 50.54647 5.71314 45232 ft 521 kts 106°
2026-04-15 08:37 50.52532 5.82167 45230 ft 522 kts 106°
2026-04-15 08:38 50.50388 5.93102 45233 ft 522 kts 106°
2026-04-15 08:38 50.48241 6.03991 45225 ft 522 kts 106°
2026-04-15 08:39 50.46102 6.14777 45224 ft 518 kts 106°
2026-04-15 08:39 50.43937 6.25638 45219 ft 519 kts 106°
2026-04-15 08:40 50.41774 6.36429 45225 ft 520 kts 106°
2026-04-15 08:40 50.39571 6.47174 45222 ft 519 kts 107°
2026-04-15 08:41 50.37336 6.57940 45229 ft 518 kts 107°
2026-04-15 08:41 50.35119 6.68647 45237 ft 519 kts 107°
2026-04-15 08:42 50.32868 6.79391 45235 ft 519 kts 107°
2026-04-15 08:42 50.30612 6.90152 45241 ft 519 kts 107°
2026-04-15 08:43 50.28353 7.00832 45242 ft 518 kts 107°
2026-04-15 08:43 50.26076 7.11568 45246 ft 519 kts 107°
2026-04-15 08:44 50.23790 7.22270 45244 ft 519 kts 108°
2026-04-15 08:44 50.21494 7.32977 45246 ft 522 kts 108°
2026-04-15 08:45 50.19186 7.43672 45249 ft 523 kts 108°
2026-04-15 08:45 50.16859 7.54405 45251 ft 522 kts 108°
2026-04-15 08:46 50.14528 7.65102 45255 ft 521 kts 108°
2026-04-15 08:46 50.12176 7.75836 45263 ft 522 kts 108°
2026-04-15 08:47 50.09821 7.86528 45276 ft 522 kts 108°
2026-04-15 08:47 50.07461 7.97188 45292 ft 523 kts 108°
2026-04-15 08:48 50.05079 8.07893 45290 ft 522 kts 108°
2026-04-15 08:48 50.02687 8.18591 45288 ft 522 kts 108°
2026-04-15 08:49 50.00288 8.29264 45282 ft 523 kts 108°
2026-04-15 08:49 49.97879 8.39925 45283 ft 523 kts 108°
2026-04-15 08:50 49.95468 8.50516 45262 ft 523 kts 109°
2026-04-15 08:50 49.92140 8.60589 45281 ft 525 kts 121°
2026-04-15 08:51 49.88413 8.70356 45281 ft 525 kts 118°
2026-04-15 08:51 49.84886 8.80164 44643 ft 520 kts 120°
2026-04-15 08:51 49.83054 8.84949 43971 ft 512 kts 120°
2026-04-15 08:52 49.81269 8.89658 43311 ft 499 kts 118°
2026-04-15 08:52 49.79570 8.94288 42660 ft 487 kts 117°
2026-04-15 08:52 49.77920 8.98773 42040 ft 476 kts 117°
2026-04-15 08:52 49.76257 9.03189 41423 ft 469 kts 117°
2026-04-15 08:53 49.74639 9.07465 40814 ft 465 kts 117°
2026-04-15 08:53 49.73021 9.11792 40204 ft 464 kts 116°
2026-04-15 08:53 49.71404 9.16128 39596 ft 467 kts 116°
2026-04-15 08:53 49.69765 9.20484 38982 ft 474 kts 116°
2026-04-15 08:54 49.68089 9.24912 38284 ft 479 kts 115°
2026-04-15 08:54 49.66396 9.29387 37651 ft 484 kts 115°
2026-04-15 08:54 49.64698 9.33885 37005 ft 487 kts 115°
2026-04-15 08:54 49.62981 9.38417 36361 ft 489 kts 116°
2026-04-15 08:55 49.61100 9.42831 35482 ft 499 kts 123°
2026-04-15 08:55 49.58834 9.46932 34808 ft 502 kts 128°
2026-04-15 08:55 49.56436 9.50878 34095 ft 502 kts 129°
2026-04-15 08:55 49.54110 9.54854 33442 ft 499 kts 127°
2026-04-15 08:56 49.51874 9.58927 32793 ft 498 kts 126°
2026-04-15 08:56 49.49615 9.62978 32136 ft 499 kts 127°
2026-04-15 08:56 49.47294 9.66944 31479 ft 499 kts 128°
2026-04-15 08:56 49.44996 9.70864 30830 ft 498 kts 128°
2026-04-15 08:57 49.42724 9.74860 30149 ft 495 kts 127°
2026-04-15 08:57 49.40525 9.78879 29465 ft 482 kts 124°
2026-04-15 08:57 49.38937 9.83314 28837 ft 467 kts 108°
2026-04-15 08:57 49.38126 9.88065 28239 ft 453 kts 94°
2026-04-15 08:58 49.37862 9.92803 27691 ft 446 kts 90°
2026-04-15 08:58 49.37434 10.02235 26530 ft 440 kts 91°
2026-04-15 08:58 49.37204 10.06919 25954 ft 437 kts 91°
2026-04-15 08:59 49.36974 10.11502 25390 ft 433 kts 91°
2026-04-15 08:59 49.36752 10.16091 24826 ft 429 kts 92°
2026-04-15 08:59 49.36532 10.20643 24273 ft 426 kts 92°
2026-04-15 08:59 49.36306 10.25171 23696 ft 422 kts 92°
2026-04-15 09:00 49.36078 10.29656 23135 ft 417 kts 92°
2026-04-15 09:00 49.35857 10.34027 22584 ft 413 kts 92°
2026-04-15 09:00 49.35636 10.38402 22049 ft 410 kts 92°
2026-04-15 09:00 49.35413 10.42750 21513 ft 407 kts 93°
2026-04-15 09:01 49.35188 10.47079 20981 ft 404 kts 93°
2026-04-15 09:01 49.35083 10.51367 20409 ft 400 kts 85°
2026-04-15 09:01 49.35751 10.55459 19895 ft 394 kts 67°
2026-04-15 09:01 49.37157 10.59016 19389 ft 389 kts 50°
2026-04-15 09:02 49.39014 10.62012 18913 ft 387 kts 45°
2026-04-15 09:02 49.40903 10.64941 18380 ft 384 kts 46°
2026-04-15 09:02 49.42304 10.68340 17839 ft 382 kts 66°
2026-04-15 09:02 49.42965 10.72287 17346 ft 382 kts 83°
2026-04-15 09:03 49.42839 10.76352 16859 ft 380 kts 97°
2026-04-15 09:03 49.42448 10.80372 16369 ft 381 kts 98°
2026-04-15 09:03 49.42041 10.84382 15862 ft 378 kts 98°
2026-04-15 09:03 49.41657 10.88368 15361 ft 375 kts 98°
2026-04-15 09:04 49.41289 10.92280 14869 ft 372 kts 98°
2026-04-15 09:04 49.40908 10.96201 14374 ft 370 kts 98°
2026-04-15 09:04 49.40521 11.00100 13865 ft 368 kts 99°
2026-04-15 09:04 49.40142 11.03965 13371 ft 364 kts 98°
2026-04-15 09:05 49.39768 11.07796 12897 ft 361 kts 98°
2026-04-15 09:05 49.39392 11.11602 12417 ft 359 kts 99°
2026-04-15 09:05 49.39022 11.15328 11949 ft 355 kts 99°
2026-04-15 09:05 49.38650 11.19063 11480 ft 353 kts 99°
2026-04-15 09:06 49.38283 11.22748 11017 ft 341 kts 99°
2026-04-15 09:06 49.37932 11.26250 10567 ft 321 kts 99°
2026-04-15 09:06 49.37603 11.29531 10148 ft 300 kts 99°
2026-04-15 09:06 49.37294 11.32598 9789 ft 282 kts 99°
2026-04-15 09:07 49.37000 11.35498 9476 ft 274 kts 99°
2026-04-15 09:07 49.36708 11.38380 9127 ft 273 kts 99°
2026-04-15 09:07 49.36414 11.41264 8769 ft 274 kts 99°
2026-04-15 09:07 49.36118 11.44172 8398 ft 276 kts 99°
2026-04-15 09:08 49.35820 11.47092 8014 ft 275 kts 100°
2026-04-15 09:08 49.35526 11.49975 7640 ft 272 kts 99°
2026-04-15 09:08 49.35232 11.52831 7303 ft 270 kts 100°
2026-04-15 09:08 49.35035 11.55683 6918 ft 268 kts 90°
2026-04-15 09:09 49.35561 11.58371 6545 ft 269 kts 63°
2026-04-15 09:09 49.36841 11.60484 6182 ft 270 kts 36°
2026-04-15 09:09 49.38576 11.61503 5858 ft 271 kts 13°
2026-04-15 09:09 49.40447 11.61952 5563 ft 272 kts
2026-04-15 09:10 49.42332 11.61733 5110 ft 276 kts 342°
2026-04-15 09:10 49.43870 11.60184 4953 ft 256 kts 315°
2026-04-15 09:10 49.44780 11.57936 4965 ft 247 kts 292°
2026-04-15 09:10 49.45206 11.55446 4964 ft 232 kts 278°
2026-04-15 09:11 49.45419 11.53045 4975 ft 223 kts 277°
2026-04-15 09:11 49.45571 11.51469 4976 ft 226 kts 278°
2026-04-15 09:11 49.45810 11.49064 4978 ft 229 kts 277°
2026-04-15 09:11 49.46131 11.45846 4978 ft 229 kts 278°
2026-04-15 09:12 49.46294 11.44215 4970 ft 227 kts 278°
2026-04-15 09:12 49.46536 11.41792 4981 ft 230 kts 278°
2026-04-15 09:12 49.46771 11.39403 4936 ft 227 kts 277°
2026-04-15 09:12 49.46999 11.37048 4643 ft 216 kts 278°
2026-04-15 09:13 49.47218 11.34842 4352 ft 201 kts 278°
2026-04-15 09:13 49.47419 11.32785 4089 ft 188 kts 277°
2026-04-15 09:13 49.47607 11.30855 3854 ft 181 kts 278°
2026-04-15 09:13 49.47792 11.29005 3598 ft 167 kts 278°
2026-04-15 09:14 49.47954 11.27310 3400 ft 156 kts 277°
2026-04-15 09:14 49.48110 11.25721 3158 ft 142 kts 277°
2026-04-15 09:14 49.48247 11.24258 2932 ft 137 kts 277°
2026-04-15 09:14 49.48377 11.22841 2721 ft 130 kts 277°
2026-04-15 09:15 49.48487 11.21487 2604 ft 130 kts 277°
2026-04-15 09:15 49.48603 11.20107 2493 ft 130 kts 278°
2026-04-15 09:15 49.48754 11.18736 2344 ft 131 kts 281°
2026-04-15 09:15 49.48935 11.17348 2089 ft 132 kts 281°
2026-04-15 09:16 49.49082 11.15974 1907 ft 129 kts 279°
2026-04-15 09:16 49.49209 11.14621 1724 ft 127 kts 279°
2026-04-15 09:16 49.49325 11.13291 1564 ft 123 kts 279°
2026-04-15 09:16 49.49452 11.12002 1387 ft 121 kts 279°
2026-04-15 09:17 49.49579 11.10753 1250 ft 119 kts 279°
2026-04-15 09:17 49.49703 11.09496 1092 ft 119 kts 279°
2026-04-15 09:17 49.49821 11.08321 1032 ft 96 kts 278°
2026-04-15 09:17 49.49890 11.07617 1031 ft 49 kts 278°
2026-04-15 09:18 49.49933 11.07161 1024 ft 35 kts 278°
2026-04-15 09:18 49.49873 11.07016 1021 ft 15 kts 163°
2026-04-15 09:18 49.49803 11.07062 1021 ft 0 kts 158°
2026-04-15 09:19 49.49784 11.07074 1021 ft 5 kts 156°
2026-04-15 09:19 49.49746 11.07121 1022 ft 10 kts 118°
2026-04-15 09:19 49.49707 11.07233 1022 ft 12 kts 172°
2026-04-15 09:20 49.49632 11.07219 1024 ft 11 kts 188°
2026-04-15 09:20 49.49576 11.07192 1023 ft 5 kts 174°
2026-04-15 09:20 49.49527 11.07195 1023 ft 7 kts 191°
2026-04-15 09:20 49.49502 11.07147 1023 ft 5 kts 283°
2026-04-15 09:21 49.49521 11.07131 1023 ft 3 kts
2026-04-15 09:21 49.49542 11.07137 1023 ft 3 kts
2026-04-15 09:21 49.49545 11.07137 1023 ft 0 kts